Location: Weatherford
(35.5260°N, 98.7070°W)
Time: 09:45:33
(UTC-05:00)

Amateur Radio Satellites - All Passes

Search period start: 24 July 2014 09:15
Search period end: 25 July 2014 09:15
Location: Weatherford, 35.5260°N, 98.7070°W

Satellite Date Start Highest point End Downlink Frequencies (MHz)
Time Altitude Azimuth
Saudisat 1A 24 Jul 09:19:28 09:23:46 56° 116° (ESE) 09:28:07 436.775 MHz
SO-67 24 Jul 09:22:09 09:25:05 26° 287° (WNW) 09:28:01 435.3500 MHz FM
HO-68 24 Jul 09:36:04 09:41:33 23° 95° (E) 09:46:59 435.675 MHz FM
ISS 24 Jul 10:01:06 10:04:07 31° 228° (SW) 10:07:07 145.800 FM
PANSAT 24 Jul 10:09:26 10:12:46 28° 183° (S) 10:16:05 not established
UKube-1 24 Jul 10:18:05 10:21:56 30° 98° (E) 10:25:44 145.840 MHz, 145.915 MHz
MaSat-1 24 Jul 10:22:48 10:25:59 16° 260° (W) 10:29:04 437.345 MHz
KITSAT 1 24 Jul 10:49:14 10:52:34 13° 326° (NW) 10:55:56 435.175 FM
Saudisat 1A 24 Jul 11:01:05 11:03:41 15° 313° (NW) 11:06:19 436.775 MHz
Sapphire 24 Jul 11:04:37 11:08:39 21° 52° (NE) 11:12:39 437.095 MHz 1200 baud AX-25 AFSK
Oscar 11 24 Jul 11:08:39 11:12:55 58° 101° (E) 11:17:11 145.825 FM, Beacon 2401.500 USB
FUNcube-1 24 Jul 11:16:09 11:19:28 23° 96° (E) 11:22:46 145.950 - 145.970 MHz USB
HO-68 24 Jul 11:22:36 11:29:33 57° 290° (WNW) 11:36:29 435.675 MHz FM
PCSat 24 Jul 11:37:52 11:42:59 41° 58° (ENE) 11:48:05 145.825 MHz
PANSAT 24 Jul 11:49:50 11:52:28 18° 195° (SSW) 11:55:05 not established
UKube-1 24 Jul 11:54:43 11:57:55 20° 292° (WNW) 12:01:07 145.840 MHz, 145.915 MHz
Sapphire 24 Jul 12:47:06 12:52:21 52° 248° (WSW) 12:57:34 437.095 MHz 1200 baud AX-25 AFSK
Oscar 11 24 Jul 12:47:28 12:48:34 11° 295° (WNW) 12:49:41 145.825 FM, Beacon 2401.500 USB
RS-15 24 Jul 12:50:35 12:54:40 13° 98° (E) 12:58:42 29.354 - 29.394 USB, Beacon 29.352 USB
FUNcube-1 24 Jul 12:52:27 12:55:46 24° 290° (WNW) 12:59:07 145.950 - 145.970 MHz USB
Oscar 16 24 Jul 12:57:20 12:58:53 11° 62° (ENE) 13:00:27 437.025 USB, Beacon 2401.1428
PCSat 24 Jul 13:21:54 13:26:06 23° 254° (WSW) 13:30:16 145.825 MHz
Uribyol 2 24 Jul 13:28:45 13:29:56 11° 61° (ENE) 13:31:06 436.500 FM
JAS-1B 24 Jul 13:29:02 13:33:17 14° 51° (NE) 13:37:43 435.800 - 435.900 CW/SSB
Oscar 19 24 Jul 14:05:07 14:10:05 53° 73° (ENE) 14:15:03 437.125 CW, 437.150 USB
Oscar 16 24 Jul 14:32:26 14:37:33 77° 258° (WSW) 14:42:41 437.025 USB, Beacon 2401.1428
SO-50 24 Jul 14:36:04 14:40:31 79° 300° (WNW) 14:45:03 436.795 FM
TMSAT-1 24 Jul 14:36:38 14:39:13 14° 63° (ENE) 14:41:48 436.925 FM
ITAMSAT 1 24 Jul 14:42:47 14:47:53 58° 73° (ENE) 14:53:00 435.822 SSB
KITSAT 1 24 Jul 14:51:48 14:53:40 11° 31° (NNE) 14:55:31 435.175 FM
RS-15 24 Jul 14:53:56 15:05:05 74° 115° (ESE) 15:15:57 29.354 - 29.394 USB, Beacon 29.352 USB
Gurwin Techsat 1B 24 Jul 14:55:26 14:59:58 30° 69° (ENE) 15:04:32 435.225 FM
AO-27 24 Jul 15:00:30 15:05:44 88° 76° (ENE) 15:10:59 436.795 MHz FM
AO-Echo 24 Jul 15:00:36 15:05:51 88° 77° (ENE) 15:11:13 ?
Uribyol 2 24 Jul 15:03:26 15:08:39 84° 257° (WSW) 15:13:52 436.500 FM
JAS-1B 24 Jul 15:13:27 15:21:42 66° 71° (ENE) 15:31:12 435.800 - 435.900 CW/SSB
UOSAT-12 24 Jul 15:25:47 15:29:15 22° 110° (ESE) 15:32:46 437.025 FM, 437.400 FM
Oscar 19 24 Jul 15:46:51 15:49:42 15° 267° (W) 15:52:33 437.125 CW, 437.150 USB
AO-7 24 Jul 15:58:06 16:05:16 33° 61° (ENE) 16:12:27 29.400 - 29.500 MHz
TMSAT-1 24 Jul 16:13:15 16:18:31 68° 258° (WSW) 16:23:48 436.925 FM
ITAMSAT 1 24 Jul 16:24:55 16:27:41 14° 268° (W) 16:30:28 435.822 SSB
Gurwin Techsat 1B 24 Jul 16:35:15 16:39:50 30° 263° (W) 16:44:27 435.225 FM
KITSAT 1 24 Jul 16:43:44 16:51:26 46° 55° (NE) 16:59:04 435.175 FM
Uosat F 24 Jul 16:53:35 16:58:35 68° 74° (ENE) 17:03:37 435.120 FM
UOSAT-12 24 Jul 17:04:55 17:09:08 35° 306° (NW) 17:13:27 437.025 FM, 437.400 FM
JAS-1B 24 Jul 17:06:07 17:12:50 27° 270° (W) 17:20:22 435.800 - 435.900 CW/SSB
RS-15 24 Jul 17:08:54 17:18:23 32° 317° (NW) 17:27:48 29.354 - 29.394 USB, Beacon 29.352 USB
JAS-2 24 Jul 17:19:40 17:23:24 14° 59° (ENE) 17:27:04 435.800 - 435.900 CW/SSB, 435.910 FM
OPAL 24 Jul 17:30:42 17:35:44 66° 104° (ESE) 17:40:49 ?
Hamsat 24 Jul 17:43:57 17:45:38 12° 66° (ENE) 17:47:20 145.90 MHz
AO-7 24 Jul 17:49:37 17:57:40 52° 258° (WSW) 18:05:47 29.400 - 29.500 MHz
Saudisat 1A 24 Jul 17:49:42 17:53:01 20° 50° (NE) 17:56:18 436.775 MHz
Uosat F 24 Jul 18:36:19 18:37:47 11° 269° (W) 18:39:16 435.120 FM
KITSAT 1 24 Jul 18:39:26 18:46:36 37° 253° (WSW) 18:53:45 435.175 FM
JAS-2 24 Jul 18:59:27 19:07:18 77° 74° (ENE) 19:14:54 435.800 - 435.900 CW/SSB, 435.910 FM
OPAL 24 Jul 19:11:35 19:14:03 14° 298° (WNW) 19:16:32 ?
Hamsat 24 Jul 19:17:09 19:21:09 47° 261° (W) 19:25:12 145.90 MHz
Saudisat 1A 24 Jul 19:28:38 19:32:42 37° 246° (WSW) 19:36:43 436.775 MHz
RS-15 24 Jul 19:31:57 19:35:57 12° 352° (N) 19:39:59 29.354 - 29.394 USB, Beacon 29.352 USB
STRAND 1 24 Jul 19:46:14 19:50:52 34° 98° (E) 19:55:28 ?
SO-67 24 Jul 19:51:47 19:55:10 56° 76° (ENE) 19:58:35 435.3500 MHz FM
HO-68 24 Jul 20:04:24 20:07:37 14° 56° (NE) 20:10:50 435.675 MHz FM
JAS-2 24 Jul 20:47:29 20:52:45 19° 269° (W) 20:57:58 435.800 - 435.900 CW/SSB, 435.910 FM
UKube-1 24 Jul 21:11:31 21:14:35 19° 68° (ENE) 21:17:41 145.840 MHz, 145.915 MHz
STRAND 1 24 Jul 21:25:48 21:29:51 24° 293° (WNW) 21:33:52 ?
HO-68 24 Jul 21:47:02 21:54:12 81° 73° (ENE) 22:01:23 435.675 MHz FM
RS-15 24 Jul 21:47:33 21:54:58 20° 30° (NNE) 22:02:29 29.354 - 29.394 USB, Beacon 29.352 USB
Oscar 11 24 Jul 22:01:03 22:04:50 31° 72° (ENE) 22:08:38 145.825 FM, Beacon 2401.500 USB
FUNcube-1 24 Jul 22:11:01 22:13:21 14° 67° (ENE) 22:15:40 145.950 - 145.970 MHz USB
MaSat-1 24 Jul 22:33:02 22:36:28 37° 106° (ESE) 22:40:29 437.345 MHz
UKube-1 24 Jul 22:46:37 22:50:32 32° 262° (W) 22:54:29 145.840 MHz, 145.915 MHz
SO-50 24 Jul 23:10:31 23:15:01 41° 56° (NE) 23:19:34 436.795 FM
Oscar 11 24 Jul 23:38:02 23:41:03 19° 266° (W) 23:44:05 145.825 FM, Beacon 2401.500 USB
HO-68 24 Jul 23:38:36 23:42:32 15° 268° (W) 23:46:29 435.675 MHz FM
FUNcube-1 24 Jul 23:45:11 23:49:23 43° 261° (W) 23:53:31 145.950 - 145.970 MHz USB
RS-15 24 Jul 23:59:00 00:10:00 65° 57° (ENE) 00:21:23 29.354 - 29.394 USB, Beacon 29.352 USB
UOSAT-12 24 Jul 23:59:26 00:00:46 11° 43° (NE) 00:02:06 437.025 FM, 437.400 FM
Lituanica SAT-1 25 Jul 00:00:44 00:02:48 68° 134° (SE) 00:04:52 437.275 MHz beacon
MaSat-1 25 Jul 00:11:25 00:14:04 17° 307° (NW) 00:17:00 437.345 MHz
SO-50 25 Jul 00:51:50 00:55:18 20° 250° (WSW) 00:58:46 436.795 FM
ISS 25 Jul 01:04:25 01:07:27 33° 132° (SE) 01:10:30 145.800 FM
UOSAT-12 25 Jul 01:36:53 01:41:38 85° 61° (ENE) 01:46:17 437.025 FM, 437.400 FM
Sapphire 25 Jul 01:43:09 01:47:50 31° 108° (ESE) 01:52:34 437.095 MHz 1200 baud AX-25 AFSK
RS-15 25 Jul 02:12:20 02:21:35 32° 255° (WSW) 02:31:11 29.354 - 29.394 USB, Beacon 29.352 USB
PCSat 25 Jul 02:16:14 02:21:35 71° 114° (ESE) 02:26:59 145.825 MHz
Oscar 19 25 Jul 02:20:20 02:24:30 24° 96° (E) 02:28:39 437.125 CW, 437.150 USB
ISS 25 Jul 02:41:28 02:44:11 23° 328° (NNW) 02:46:54 145.800 FM
Oscar 16 25 Jul 02:47:16 02:52:15 48° 100° (E) 02:57:14 437.025 USB, Beacon 2401.1428
AO-40 25 Jul 02:48:14 03:34:57 12° 109° (ESE) 04:10:24 Beacon 2401.320
ITAMSAT 1 25 Jul 02:59:22 03:03:39 26° 96° (E) 03:07:55 435.822 SSB
JAS-1B 25 Jul 03:04:49 03:12:14 26° 90° (E) 03:18:50 435.800 - 435.900 CW/SSB
AO-Echo 25 Jul 03:11:40 03:16:21 36° 97° (E) 03:20:52 ?
Gurwin Techsat 1B 25 Jul 03:15:49 03:18:42 15° 92° (E) 03:21:34 435.225 FM
AO-27 25 Jul 03:16:56 03:21:48 40° 99° (E) 03:26:38 436.795 MHz FM
Uribyol 2 25 Jul 03:19:29 03:24:25 44° 99° (E) 03:29:18 436.500 FM
Sapphire 25 Jul 03:26:25 03:31:10 31° 304° (NW) 03:35:59 437.095 MHz 1200 baud AX-25 AFSK
Oscar 19 25 Jul 03:59:13 04:03:50 34° 290° (WNW) 04:08:27 437.125 CW, 437.150 USB
PCSat 25 Jul 04:02:15 04:05:32 16° 311° (NW) 04:08:50 145.825 MHz
Oscar 16 25 Jul 04:27:47 04:31:12 18° 295° (WNW) 04:34:37 437.025 USB, Beacon 2401.1428
TMSAT-1 25 Jul 04:32:12 04:37:27 63° 101° (E) 04:42:40 436.925 FM
ITAMSAT 1 25 Jul 04:38:33 04:43:06 32° 291° (WNW) 04:47:38 435.822 SSB
OPAL 25 Jul 04:42:54 04:47:51 84° 74° (ENE) 04:52:49 ?
AO-Echo 25 Jul 04:50:57 04:54:51 23° 293° (WNW) 04:58:39 ?
Gurwin Techsat 1B 25 Jul 04:53:47 04:58:59 58° 287° (WNW) 05:04:10 435.225 FM
JAS-1B 25 Jul 04:53:59 05:03:23 65° 289° (WNW) 05:11:29 435.800 - 435.900 CW/SSB
AO-27 25 Jul 04:57:09 05:01:00 22° 294° (WNW) 05:04:51 436.795 MHz FM
Uribyol 2 25 Jul 04:59:55 05:03:31 19° 294° (WNW) 05:07:06 436.500 FM
Uosat F 25 Jul 05:05:00 05:09:12 26° 96° (E) 05:13:21 435.120 FM
AO-7 25 Jul 05:54:15 06:02:34 68° 105° (ESE) 06:10:47 29.400 - 29.500 MHz
TMSAT-1 25 Jul 06:13:58 06:16:48 15° 296° (WNW) 06:19:37 436.925 FM
PANSAT 25 Jul 06:27:20 06:28:29 11° 159° (SSE) 06:29:37 not established
Uosat F 25 Jul 06:43:35 06:47:55 30° 291° (WNW) 06:52:13 435.120 FM
JAS-1B 25 Jul 06:47:34 06:51:47 14° 310° (NW) 06:55:50 435.800 - 435.900 CW/SSB
STRAND 1 25 Jul 06:59:14 07:03:56 37° 71° (ENE) 07:08:39 ?
Hamsat 25 Jul 07:05:47 07:09:45 36° 98° (E) 07:13:44 145.90 MHz
KITSAT 1 25 Jul 07:08:25 07:16:01 47° 110° (ESE) 07:23:38 435.175 FM
ISS 25 Jul 07:35:56 07:38:05 16° 28° (NNE) 07:40:14 145.800 FM
Lituanica SAT-1 25 Jul 07:47:56 07:49:51 31° 226° (SW) 07:51:44 437.275 MHz beacon
AO-7 25 Jul 07:48:14 07:54:37 25° 302° (WNW) 08:00:58 29.400 - 29.500 MHz
JAS-2 25 Jul 07:59:02 08:05:08 87° 103° (ESE) 08:10:33 435.800 - 435.900 CW/SSB, 435.910 FM
PANSAT 25 Jul 08:04:56 08:08:05 24° 171° (S) 08:11:13 not established
MaSat-1 25 Jul 08:30:43 08:35:58 57° 64° (ENE) 08:40:56 437.345 MHz
STRAND 1 25 Jul 08:39:14 08:43:11 22° 265° (W) 08:47:09 ?
Hamsat 25 Jul 08:42:41 08:45:25 17° 292° (WNW) 08:48:09 145.90 MHz
SO-67 25 Jul 08:51:30 08:54:58 73° 283° (WNW) 08:58:25 435.3500 MHz FM
